GW5593 Weather Reports


time (UTC)temp
F
wind
direction
speed
knots
gust
knots
rain 1hr
in
rain 24hr
in
rain mn
in
humidity
%
barometer
mb
20260906065143 73 221 0.9 1.7 0.00 0.00 0.00 92 1015.0
20260906064643 73 331 0.9 1.7 0.00 0.00 0.00 92 1015.0
20260906064143 73 219 0.9 1.7 0.00 0.00 0.00 92 1015.0
20260906063643 73 266 0.0 0.9 0.00 0.00 0.00 92 1015.0
20260906063143 73 268 0.9 3.5 0.00 0.00 0.00 92 1015.0
20260906062643 73 360 0.0 0.0 0.00 0.00 0.00 92 1015.0
20260906062143 73 179 0.9 1.7 0.00 0.00 0.00 91 1015.0
20260906061643 74 360 0.0 0.0 0.00 0.00 0.00 91 1015.0
20260906061143 74 281 0.0 0.9 0.00 0.00 0.00 91 1015.0
20260906060643 74 253 0.0 0.9 0.00 0.00 0.00 91 1015.0
20260906060143 74 132 0.9 2.6 0.00 0.00 0.00 91 1015.0
20260906055643 74 272 0.0 0.9 0.00 0.00 0.00 91 1015.0
20260906055144 74 156 0.9 1.7 0.00 0.00 0.00 91 1015.0
20260906054643 74 94 0.9 2.6 0.00 0.00 0.00 90 1015.0
20260906054143 74 294 0.0 0.9 0.00 0.00 0.00 90 1015.0
20260906053644 74 227 0.9 2.6 0.00 0.00 0.00 90 1015.0
20260906053143 74 223 0.0 0.9 0.00 0.00 0.00 90 1015.0
20260906052643 75 172 0.0 1.7 0.00 0.00 0.00 90 1015.0
20260906052144 75 213 0.0 1.7 0.00 0.00 0.00 90 1015.0
20260906051643 75 251 0.0 0.9 0.00 0.00 0.00 89 1015.0
20260906051143 75 165 0.0 0.9 0.00 0.00 0.00 90 1015.0
20260906050643 75 151 0.0 1.7 0.00 0.00 0.00 89 1014.0
20260906050143 75 165 0.9 1.7 0.00 0.00 0.00 89 1014.0
20260906045644 75 121 0.9 1.7 0.00 0.00 0.00 89 1014.0
20260906045143 75 132 0.0 1.7 0.00 0.00 0.00 89 1014.0
20260906044643 75 159 0.0 0.9 0.00 0.00 0.00 89 1014.0
20260906044143 76 157 0.0 0.9 0.00 0.00 0.00 89 1014.0
20260906043643 76 243 0.9 1.7 0.00 0.00 0.00 89 1014.0
20260906043143 76 325 0.9 1.7 0.00 0.00 0.00 89 1014.0
20260906042643 76 308 0.0 1.7 0.00 0.00 0.00 89 1014.0
20260906042143 76 258 0.9 1.7 0.00 0.00 0.00 89 1014.0
20260906041643 76 360 0.0 0.0 0.00 0.00 0.00 89 1014.0
20260906041143 76 254 0.9 1.7 0.00 0.00 0.00 89 1014.0
20260906040643 76 214 0.9 2.6 0.00 0.00 0.00 89 1014.0
20260906040143 76 360 0.0 0.0 0.00 0.00 0.00 88 1014.0
20260906035643 76 124 0.0 0.9 0.00 0.00 0.00 88 1014.0
20260906035143 76 158 0.0 1.7 0.00 0.00 0.00 88 1014.0
20260906034643 76 282 0.0 0.9 0.00 0.00 0.00 88 1014.0
20260906034143 76 129 0.0 1.7 0.00 0.00 0.00 88 1014.0
20260906033643 76 103 1.7 2.6 0.00 0.00 0.00 87 1014.0
20260906033143 76 220 0.9 1.7 0.00 0.00 0.00 87 1014.0
20260906032643 76 133 0.9 2.6 0.00 0.00 0.00 87 1014.0
20260906032144 77 147 1.7 2.6 0.00 0.00 0.00 86 1014.0
20260906031643 77 209 0.0 0.9 0.00 0.00 0.00 86 1014.0
20260906031144 77 323 1.7 4.3 0.00 0.00 0.00 85 1014.0
20260906030643 77 48 0.9 3.5 0.00 0.00 0.00 84 1014.0
20260906030143 78 146 0.9 1.7 0.00 0.00 0.00 84 1014.0
20260906025644 78 136 0.9 1.7 0.00 0.00 0.00 83 1014.0
20260906025143 78 213 0.0 0.9 0.00 0.00 0.00 82 1014.0
20260906024643 79 163 0.9 2.6 0.00 0.00 0.00 82 1014.0
20260906024144 79 112 1.7 1.7 0.00 0.00 0.00 81 1014.0
20260906023644 79 142 0.9 2.6 0.00 0.00 0.00 80 1014.0
20260906023143 80 287 0.9 2.6 0.00 0.00 0.00 79 1014.0
20260906022643 80 2 0.0 0.9 0.00 0.00 0.00 77 1014.0
20260906022146 80 213 0.9 1.7 0.00 0.00 0.00 76 1014.0
20260906021643 80 116 0.9 1.7 0.00 0.00 0.00 76 1014.0
20260906021145 80 119 0.0 1.7 0.00 0.00 0.00 76 1014.0
20260906020643 80 137 0.9 1.7 0.00 0.00 0.00 76 1014.0
20260906020144 80 104 1.7 1.7 0.00 0.00 0.00 77 1013.0
20260906015643 80 133 0.0 1.7 0.00 0.00 0.00 78 1013.0
20260906015143 80 151 0.9 1.7 0.00 0.00 0.00 78 1013.0
20260906014643 80 360 0.0 0.0 0.00 0.00 0.00 79 1013.0
20260906014143 80 360 0.0 0.0 0.00 0.00 0.00 78 1013.0
20260906013643 80 302 0.0 0.0 0.00 0.00 0.00 78 1013.0
20260906013143 81 330 0.0 1.7 0.00 0.00 0.00 78 1013.0
20260906012643 81 360 0.0 0.0 0.00 0.00 0.00 77 1013.0
20260906012143 81 120 0.0 0.9 0.00 0.00 0.00 77 1013.0
20260906011643 82 61 0.0 0.0 0.00 0.00 0.00 76 1013.0
20260906011143 82 360 0.0 0.0 0.00 0.00 0.00 77 1013.0
20260906010644 82 107 0.0 0.9 0.00 0.00 0.00 77 1013.0
20260906010143 82 108 0.0 1.7 0.00 0.00 0.00 77 1013.0
20260906005643 83 346 0.0 0.9 0.00 0.00 0.00 76 1013.0
20260906005143 83 23 0.0 1.7 0.00 0.00 0.00 77 1013.0
20260906004644 83 312 0.0 0.9 0.00 0.00 0.00 76 1012.0
20260906004145 83 349 0.0 0.9 0.00 0.00 0.00 76 1012.0
20260906003643 83 271 0.0 0.0 0.00 0.00 0.00 76 1012.0
20260906003143 84 316 0.0 0.9 0.00 0.00 0.00 75 1012.0
20260906002643 84 311 0.9 0.9 0.00 0.00 0.00 74 1012.0
20260906002144 85 331 0.0 0.9 0.00 0.00 0.00 74 1012.0
20260906001644 85 312 0.0 0.9 0.00 0.00 0.00 74 1012.0
20260906001144 85 283 0.0 0.0 0.00 0.00 0.00 74 1012.0
20260906000643 86 16 0.0 1.7 0.00 0.00 0.00 73 1012.0
20260906000143 87 360 0.0 0.0 0.00 0.00 0.00 72 1012.0
20260905235643 87 327 0.0 0.9 0.00 0.00 0.00 71 1012.0
20260905235143 88 337 0.9 1.7 0.00 0.00 0.00 70 1012.0
20260905234644 88 353 0.9 1.7 0.00 0.00 0.00 69 1012.0
20260905234143 89 360 0.0 1.7 0.00 0.00 0.00 67 1012.0
20260905233643 90 10 0.9 1.7 0.00 0.00 0.00 66 1012.0
20260905233144 90 6 0.0 0.9 0.00 0.00 0.00 66 1012.0
20260905232643 90 342 1.7 1.7 0.00 0.00 0.00 65 1012.0
20260905232143 91 5 1.7 1.7 0.00 0.00 0.00 65 1012.0
20260905231643 90 354 0.9 0.9 0.00 0.00 0.00 65 1012.0
20260905231143 90 40 0.0 0.9 0.00 0.00 0.00 66 1012.0
20260905230643 89 8 0.9 1.7 0.00 0.00 0.00 66 1013.0
20260905230143 89 14 0.9 2.6 0.00 0.00 0.00 66 1012.0
20260905225643 89 346 1.7 3.5 0.00 0.00 0.00 65 1012.0
20260905225144 88 321 1.7 2.6 0.00 0.00 0.00 65 1012.0
20260905224643 88 353 1.7 3.5 0.00 0.00 0.00 66 1012.0
20260905224144 88 281 0.9 1.7 0.00 0.00 0.00 65 1012.0
20260905223643 88 6 0.9 1.7 0.00 0.00 0.00 65 1012.0
20260905223143 89 16 0.0 1.7 0.00 0.00 0.00 64 1012.0
20260905222643 89 343 1.7 2.6 0.00 0.00 0.00 63 1012.0
20260905222143 89 353 0.0 0.9 0.00 0.00 0.00 64 1012.0
20260905221643 89 276 0.9 3.5 0.00 0.00 0.00 63 1012.0
20260905221143 89 30 0.0 0.9 0.00 0.00 0.00 63 1012.0
20260905220643 89 309 0.0 0.9 0.00 0.00 0.00 63 1012.0
20260905220143 89 330 0.9 1.7 0.00 0.00 0.00 62 1012.0
20260905215643 90 355 0.0 0.9 0.00 0.00 0.00 62 1012.0
20260905215143 90 282 0.0 0.9 0.00 0.00 0.00 61 1012.0
20260905214643 90 328 0.0 0.9 0.00 0.00 0.00 61 1012.0
20260905214147 91 19 0.0 0.9 0.00 0.00 0.00 60 1012.0
20260905213643 91 337 0.0 0.9 0.00 0.00 0.00 59 1012.0
20260905213143 92 340 0.9 1.7 0.00 0.00 0.00 58 1012.0
20260905212643 92 360 0.9 0.9 0.00 0.00 0.00 58 1012.0
20260905212143 93 324 0.0 1.7 0.00 0.00 0.00 57 1012.0
20260905211643 94 316 0.0 1.7 0.00 0.00 0.00 56 1012.0
20260905211143 94 324 0.0 0.9 0.00 0.00 0.00 55 1012.0
20260905210644 95 329 0.9 1.7 0.00 0.00 0.00 53 1012.0
20260905210144 96 1 0.9 2.6 0.00 0.00 0.00 53 1012.0
20260905205643 96 347 1.7 1.7 0.00 0.00 0.00 52 1012.0
20260905205143 96 340 0.9 1.7 0.00 0.00 0.00 52 1012.0
20260905204643 95 337 0.9 1.7 0.00 0.00 0.00 53 1012.0
20260905204143 96 360 1.7 2.6 0.00 0.00 0.00 53 1012.0
20260905203643 96 350 0.9 1.7 0.00 0.00 0.00 52 1013.0
20260905203143 97 344 0.9 1.7 0.00 0.00 0.00 50 1013.0
20260905202643 97 357 1.7 2.6 0.00 0.00 0.00 52 1013.0
20260905202143 97 359 1.7 4.3 0.00 0.00 0.00 51 1013.0
20260905201644 97 350 2.6 5.2 0.00 0.00 0.00 50 1013.0
20260905201143 96 325 2.6 3.5 0.00 0.00 0.00 52 1013.0
20260905200644 96 347 1.7 3.5 0.00 0.00 0.00 54 1013.0
20260905200143 95 2 0.9 1.7 0.00 0.00 0.00 53 1013.0
20260905195643 96 357 1.7 2.6 0.00 0.00 0.00 51 1013.0
20260905195143 95 7 2.6 3.5 0.00 0.00 0.00 53 1013.0
20260905194643 95 67 1.7 2.6 0.00 0.00 0.00 53 1013.0
20260905194143 95 301 1.7 2.6 0.00 0.00 0.00 52 1013.0
20260905193643 96 336 1.7 5.2 0.00 0.00 0.00 53 1013.0
20260905193143 96 330 1.7 3.5 0.00 0.00 0.00 51 1013.0
20260905192644 96 27 1.7 2.6 0.00 0.00 0.00 50 1013.0
20260905192143 96 306 1.7 2.6 0.00 0.00 0.00 51 1013.0
20260905191643 96 327 1.7 2.6 0.00 0.00 0.00 51 1013.0
20260905191143 95 332 1.7 2.6 0.00 0.00 0.00 51 1013.0
20260905190643 95 314 1.7 2.6 0.00 0.00 0.00 52 1013.0
20260905190144 95 300 1.7 3.5 0.00 0.00 0.00 51 1013.0
20260905185643 95 29 0.9 2.6 0.00 0.00 0.00 50 1013.0
20260905185143 94 350 0.9 1.7 0.00 0.00 0.00 52 1013.0
20260905184643 94 328 1.7 2.6 0.00 0.00 0.00 53 1014.0
20260905184143 93 8 1.7 1.7 0.00 0.00 0.00 52 1014.0
20260905183643 93 321 1.7 2.6 0.00 0.00 0.00 53 1014.0
20260905183143 93 346 1.7 2.6 0.00 0.00 0.00 51 1014.0
20260905182644 92 315 1.7 2.6 0.00 0.00 0.00 53 1014.0
20260905182143 92 124 1.7 3.5 0.00 0.00 0.00 54 1014.0
20260905181643 93 314 1.7 3.5 0.00 0.00 0.00 55 1014.0
20260905181143 94 173 1.7 2.6 0.00 0.00 0.00 52 1014.0
20260905180644 93 329 1.7 3.5 0.00 0.00 0.00 52 1014.0
20260905180143 93 322 1.7 2.6 0.00 0.00 0.00 51 1014.0
20260905175644 92 68 0.9 1.7 0.00 0.00 0.00 53 1014.0
20260905175143 92 286 1.7 2.6 0.00 0.00 0.00 54 1014.0
20260905174643 92 228 1.7 3.5 0.00 0.00 0.00 52 1014.0
20260905174143 91 51 0.9 1.7 0.00 0.00 0.00 55 1014.0
20260905173643 91 72 1.7 2.6 0.00 0.00 0.00 54 1014.0
20260905173143 91 104 0.9 3.5 0.00 0.00 0.00 55 1014.0
20260905172643 90 263 0.9 1.7 0.00 0.00 0.00 54 1014.0
20260905172144 90 235 1.7 2.6 0.00 0.00 0.00 54 1014.0
20260905171644 90 237 1.7 3.5 0.00 0.00 0.00 54 1014.0
20260905171143 90 322 0.9 2.6 0.00 0.00 0.00 54 1014.0
20260905170644 89 200 1.7 4.3 0.00 0.00 0.00 54 1014.0
20260905170144 89 207 1.7 3.5 0.00 0.00 0.00 54 1015.0
20260905165643 89 82 1.7 2.6 0.00 0.00 0.00 55 1015.0
20260905165143 88 286 0.9 1.7 0.00 0.00 0.00 55 1015.0
20260905164643 88 244 0.9 1.7 0.00 0.00 0.00 54 1015.0
20260905164143 88 87 0.9 1.7 0.00 0.00 0.00 56 1015.0
20260905163643 87 221 1.7 2.6 0.00 0.00 0.00 57 1015.0
20260905163143 87 122 2.6 3.5 0.00 0.00 0.00 56 1015.0
20260905162657 87 112 1.7 3.5 0.00 0.00 0.00 55 1015.0
20260905162143 87 121 0.9 1.7 0.00 0.00 0.00 56 1015.0
20260905161643 87 196 1.7 3.5 0.00 0.00 0.00 57 1015.0
20260905161143 86 105 2.6 4.3 0.00 0.00 0.00 56 1015.0
20260905160644 86 101 3.5 4.3 0.00 0.00 0.00 56 1015.0
20260905160143 85 219 0.9 2.6 0.00 0.00 0.00 58 1015.0
20260905155643 85 130 0.9 3.5 0.00 0.00 0.00 61 1015.0
20260905155143 85 113 3.5 5.2 0.00 0.00 0.00 58 1015.0
20260905154643 85 125 2.6 5.2 0.00 0.00 0.00 58 1015.0
20260905154143 85 121 1.7 4.3 0.00 0.00 0.00 59 1015.0
20260905153644 84 168 0.9 3.5 0.00 0.00 0.00 59 1015.0
20260905153143 83 136 2.6 5.2 0.00 0.00 0.00 60 1015.0
20260905152643 83 108 2.6 5.2 0.00 0.00 0.00 60 1015.0
20260905152143 83 132 2.6 4.3 0.00 0.00 0.00 62 1015.0
20260905151644 82 156 3.5 6.1 0.00 0.00 0.00 62 1015.0
20260905151143 82 125 3.5 4.3 0.00 0.00 0.00 62 1015.0
20260905150643 82 149 2.6 5.2 0.00 0.00 0.00 62 1015.0
20260905150143 82 125 2.6 4.3 0.00 0.00 0.00 62 1015.0
20260905145643 82 105 2.6 4.3 0.00 0.00 0.00 63 1015.0
20260905145143 81 128 3.5 5.2 0.00 0.00 0.00 63 1015.0
20260905144644 81 142 3.5 7.8 0.00 0.00 0.00 63 1015.0
20260905144143 80 129 3.5 8.7 0.00 0.00 0.00 64 1015.0
20260905143644 80 129 3.5 6.1 0.00 0.00 0.00 65 1015.0
20260905143148 80 116 3.5 5.2 0.00 0.00 0.00 65 1015.0
20260905142643 80 124 3.5 5.2 0.00 0.00 0.00 66 1015.0
20260905142144 80 140 2.6 4.3 0.00 0.00 0.00 66 1015.0
20260905141643 80 111 3.5 5.2 0.00 0.00 0.00 67 1015.0
20260905141145 79 108 3.5 6.1 0.00 0.00 0.00 68 1015.0
20260905140643 79 127 2.6 6.1 0.00 0.00 0.00 69 1015.0
20260905140143 78 130 4.3 6.1 0.00 0.00 0.00 68 1015.0
20260905135643 78 123 2.6 5.2 0.00 0.00 0.00 70 1015.0
20260905135143 78 99 2.6 5.2 0.00 0.00 0.00 70 1015.0
20260905134646 78 115 2.6 4.3 0.00 0.00 0.00 70 1015.0
20260905134143 78 115 1.7 5.2 0.00 0.00 0.00 72 1016.0
20260905133643 77 96 3.5 5.2 0.00 0.00 0.00 71 1015.0
20260905133144 77 150 2.6 4.3 0.00 0.00 0.00 72 1015.0
20260905132643 76 104 2.6 7.0 0.00 0.00 0.00 74 1015.0
20260905132144 76 134 2.6 5.2 0.00 0.00 0.00 73 1015.0
20260905131643 76 147 2.6 5.2 0.00 0.00 0.00 74 1016.0
20260905131143 76 84 1.7 4.3 0.00 0.00 0.00 74 1016.0
20260905130644 76 98 1.7 3.5 0.00 0.00 0.00 74 1016.0
20260905130148 76 161 1.7 3.5 0.00 0.00 0.00 75 1016.0
20260905125643 75 162 0.0 1.7 0.00 0.00 0.00 76 1016.0
20260905125143 75 129 1.7 3.5 0.00 0.00 0.00 77 1016.0
20260905124643 74 134 1.7 1.7 0.00 0.00 0.00 78 1016.0
20260905124143 74 81 0.9 1.7 0.00 0.00 0.00 80 1016.0
20260905123643 73 144 1.7 3.5 0.00 0.00 0.00 81 1016.0
20260905123143 73 106 0.0 1.7 0.00 0.00 0.00 81 1016.0
20260905122643 73 73 1.7 4.3 0.00 0.00 0.00 81 1016.0
20260905122143 73 132 1.7 2.6 0.00 0.00 0.00 81 1016.0
20260905121643 73 124 1.7 3.5 0.00 0.00 0.00 81 1016.0
20260905121143 73 167 0.0 0.9 0.00 0.00 0.00 82 1016.0
20260905120644 73 128 0.9 3.5 0.00 0.00 0.00 82 1016.0
20260905120143 72 349 0.9 1.7 0.00 0.00 0.00 83 1016.0
20260905115643 72 145 0.0 1.7 0.00 0.00 0.00 82 1016.0
20260905115143 72 149 0.9 1.7 0.00 0.00 0.00 84 1016.0
20260905114644 72 144 0.9 1.7 0.00 0.00 0.00 83 1015.0
20260905114144 73 60 1.7 2.6 0.00 0.00 0.00 83 1015.0
20260905113644 73 97 1.7 4.3 0.00 0.00 0.00 83 1015.0
20260905113143 73 97 2.6 5.2 0.00 0.00 0.00 85 1015.0
20260905112643 74 116 0.9 3.5 0.00 0.00 0.00 87 1015.0
20260905112143 74 295 0.9 2.6 0.00 0.00 0.00 86 1015.0
20260905111643 74 114 1.7 3.5 0.00 0.00 0.00 88 1015.0
20260905111144 74 92 2.6 5.2 0.00 0.00 0.00 93 1015.0
20260905110643 74 328 0.0 1.7 0.00 0.00 0.00 94 1014.0
20260905110144 74 360 0.0 0.0 0.00 0.00 0.00 94 1014.0
20260905105643 74 360 0.0 0.0 0.00 0.00 0.00 94 1014.0
20260905105143 74 360 0.0 0.0 0.00 0.00 0.00 94 1014.0
20260905104645 74 360 0.0 0.0 0.00 0.00 0.00 93 1014.0
20260905104143 74 360 0.0 0.0 0.00 0.00 0.00 93 1014.0
20260905103644 74 360 0.0 0.0 0.00 0.00 0.00 93 1014.0
20260905103143 74 360 0.0 0.0 0.00 0.00 0.00 93 1014.0
20260905102643 74 360 0.0 0.0 0.00 0.00 0.00 93 1014.0
20260905102143 74 360 0.0 0.0 0.00 0.00 0.00 92 1014.0
20260905101643 74 360 0.0 0.0 0.00 0.00 0.00 92 1014.0
20260905101144 75 360 0.0 0.0 0.00 0.00 0.00 91 1014.0
20260905100643 75 360 0.0 0.0 0.00 0.00 0.00 91 1014.0
20260905100143 75 360 0.0 0.0 0.00 0.00 0.00 91 1014.0
20260905095643 75 360 0.0 0.0 0.00 0.00 0.00 91 1014.0
20260905095144 75 360 0.0 0.0 0.00 0.00 0.00 91 1014.0
20260905094644 76 360 0.0 0.0 0.00 0.00 0.00 92 1014.0
20260905094143 76 360 0.0 0.0 0.00 0.00 0.00 91 1014.0
20260905093643 76 360 0.0 0.0 0.00 0.00 0.00 91 1014.0
20260905093143 76 360 0.0 0.0 0.00 0.00 0.00 91 1014.0
20260905092643 76 210 0.0 0.9 0.00 0.00 0.00 91 1014.0
20260905092143 76 220 0.0 0.9 0.00 0.00 0.00 90 1014.0
20260905091643 76 308 0.0 0.0 0.00 0.00 0.00 90 1014.0
20260905091144 76 360 0.0 0.0 0.00 0.00 0.00 89 1014.0
20260905090643 76 360 0.0 0.0 0.00 0.00 0.00 89 1014.0
20260905090143 77 360 0.0 0.0 0.00 0.00 0.00 88 1014.0
20260905085644 77 360 0.0 0.0 0.00 0.00 0.00 88 1014.0
20260905085144 77 297 0.0 0.9 0.00 0.00 0.00 88 1014.0
20260905084643 77 360 0.0 0.0 0.00 0.00 0.00 88 1014.0
20260905084143 77 323 0.0 0.0 0.00 0.00 0.00 88 1014.0
20260905083644 77 316 0.0 0.9 0.00 0.00 0.00 87 1013.0
20260905083143 77 266 0.0 0.0 0.00 0.00 0.00 87 1013.0
20260905082643 77 360 0.0 0.0 0.00 0.00 0.00 88 1013.0
20260905082143 77 360 0.0 0.0 0.00 0.00 0.00 87 1013.0
20260905081644 77 360 0.0 0.0 0.00 0.00 0.00 88 1013.0
20260905081144 77 260 0.0 0.9 0.00 0.00 0.00 87 1013.0
20260905080643 77 259 0.0 0.9 0.00 0.00 0.00 87 1013.0
20260905080143 77 360 0.0 0.0 0.00 0.00 0.00 88 1013.0
20260905075643 77 360 0.0 0.0 0.00 0.00 0.00 88 1013.0
20260905075143 77 360 0.0 0.0 0.00 0.00 0.00 88 1013.0
20260905074644 77 292 0.0 0.9 0.00 0.00 0.00 88 1013.0
20260905074145 77 195 0.0 1.7 0.00 0.00 0.00 88 1013.0
20260905073643 76 218 0.0 0.9 0.00 0.00 0.00 89 1013.0
20260905073143 76 360 0.0 0.0 0.00 0.00 0.00 90 1013.0
20260905072643 76 320 0.0 0.9 0.00 0.00 0.00 91 1013.0
20260905072143 76 301 0.0 0.9 0.00 0.00 0.00 92 1013.0
20260905071643 76 360 0.0 0.0 0.00 0.00 0.00 92 1013.0
20260905071143 76 360 0.0 0.0 0.00 0.00 0.00 92 1013.0
20260905070644 76 293 0.0 0.9 0.00 0.00 0.00 92 1013.0
20260905070143 76 360 0.0 0.0 0.00 0.00 0.00 92 1013.0
20260905065643 76 360 0.0 0.0 0.00 0.00 0.00 92 1013.0